This is the latest recevied weather packets stored in our database for station/object K7NDG. If no packets are shown the sender has not sent any weather packets the latest 10 day(s).
| Time | Temp. | Humidity | Pressure | Rain* | Wind** | Luminosity | Snow |
|---|---|---|---|---|---|---|---|
| 1777427942 | 12.22° C | 64% | 1024.7 hPa | 0 mm | - | 53 W/m² | - |
| 1777427638 | 12.22° C | 65% | 1024.6 hPa | 0 mm | - | 56 W/m² | - |
| 1777427335 | 12.22° C | 65% | 1024.6 hPa | 0 mm | - | 64 W/m² | - |
| 1777427032 | 12.22° C | 64% | 1024.5 hPa | 0 mm | - | 71 W/m² | - |
| 1777426729 | 12.22° C | 65% | 1024.6 hPa | 0 mm | - | 55 W/m² | - |
| 1777426426 | 12.22° C | 64% | 1024.6 hPa | 0 mm | - | 71 W/m² | - |
| 1777426122 | 12.78° C | 65% | 1024.5 hPa | 0 mm | - | 83 W/m² | - |
| 1777425822 | 12.78° C | 64% | 1024.6 hPa | 0 mm | - | 88 W/m² | - |
| 1777425518 | 12.78° C | 63% | 1024.6 hPa | 0 mm | - | 92 W/m² | - |
| 1777425213 | 12.78° C | 63% | 1024.5 hPa | 0 mm | - | 102 W/m² | - |
| 1777424911 | 12.78° C | 63% | 1024.6 hPa | 0 mm | - | 109 W/m² | - |
| 1777424606 | 13.33° C | 63% | 1024.6 hPa | 0 mm | - | 113 W/m² | - |
| 1777424302 | 13.33° C | 62% | 1024.7 hPa | 0 mm | - | 111 W/m² | - |
| 1777423997 | 13.33° C | 61% | 1024.6 hPa | 0 mm | - | 109 W/m² | - |
| 1777423694 | 13.89° C | 62% | 1024.9 hPa | 0 mm | - | 135 W/m² | - |
| 1777423390 | 13.89° C | 62% | 1024.7 hPa | 0 mm | - | 179 W/m² | - |
| 1777423085 | 13.33° C | 61% | 1024.6 hPa | 0 mm | - | 186 W/m² | - |
| 1777422780 | 13.33° C | 62% | 1024.5 hPa | 0 mm | - | 219 W/m² | - |
| 1777422476 | 12.78° C | 62% | 1024.4 hPa | 0 mm | - | 190 W/m² | - |
| 1777422171 | 13.33° C | 62% | 1024.4 hPa | 0 mm | - | 159 W/m² | - |
| 1777421871 | 13.33° C | 60% | 1024.7 hPa | 0 mm | - | 159 W/m² | - |
| 1777421566 | 13.33° C | 61% | 1024.4 hPa | 0 mm | - | 150 W/m² | - |
| 1777421262 | 13.89° C | 60% | 1024.6 hPa | 0 mm | - | 179 W/m² | - |
| 1777420959 | 13.89° C | 59% | 1024.6 hPa | 0 mm | - | 198 W/m² | - |
| 1777420655 | 13.89° C | 60% | 1024.3 hPa | 0 mm | - | 186 W/m² | - |
* Rain latest hour (hover to see other rain measurements)
** Current wind speed in m/s (hover to see current wind gust speed)